Location: StarHub Observatory
(35.2598°N, 77.5855°W)
Time: 11:24:45
(UTC-05:00)

Tiangong - Pass Details

Date: 14 December 2021
Orbit: 383 x 386 km, 41.5° (Epoch: 19 January)

Event Time Altitude Azimuth Distance (km) Brightness Sun altitude
Rises 17:14:15 0° 279° (W) 2,278 6.0 -3.6°
Reaches altitude 10° 17:16:32 10° 291° (WNW) 1,421 4.6 -4.0°
Maximum altitude 17:19:20 27° 353° (N) 779 2.5 -4.5°
Drops below altitude 10° 17:22:09 10° 54° (NE) 1,418 3.3 -5.0°
Enters shadow 17:22:54 - 60° (ENE) 1,688 3.6 -5.2°
